NORTHEAST SUFFOLK  -  Rip Current Statement Rip Current Statement        NORTHERN NASSAU  -  Rip Current Statement Rip Current Statement        NORTHERN QUEENS  -  Rip Current Statement Rip Current Statement     Air Quality Alert Air Quality Alert        NORTHWEST SUFFOLK  -  Rip Current Statement Rip Current Statement        SOUTHEAST SUFFOLK  -  Rip Current Statement Rip Current Statement        SOUTHERN NASSAU  -  Rip Current Statement Rip Current Statement        SOUTHERN QUEENS  -  Rip Current Statement Rip Current Statement     Air Quality Alert Air Quality Alert        SOUTHWEST SUFFOLK  -  Rip Current Statement Rip Current Statement      

Active alerts

Northern Queens
  Details for Northern Queens Rip Current Statement  +1 additional alert
Southern Queens
  Details for Southern Queens Rip Current Statement  +1 additional alert
Northern Nassau
  Details for Northern Nassau Rip Current Statement
Southern Nassau
  Details for Southern Nassau Rip Current Statement
Northwest Suffolk
  Details for Northwest Suffolk Rip Current Statement
Southwest Suffolk
  Details for Southwest Suffolk Rip Current Statement
Northeast Suffolk
  Details for Northeast Suffolk Rip Current Statement
Southeast Suffolk
  Details for Southeast Suffolk Rip Current Statement


WXM80 ListenWXM80 Stop

You find our weather info also at:

UK Metoffice

WeatherCloud

Weather Underground

Northeastern Weather Network

AWEKAS

Citizen Weather Observer Program (CWOP)

HAMweather, WeatherForYou, PWS Weather


Weather Underground History page Text

Daily Summary for November 6, 2016 Units:  English    Metric   Both
« Previous Day
Next Day »
Daily Weekly Monthly Yearly Custom
  High: Low: Average:
Temperature: 57.9 °F 45.5 °F 52.1 °F
Dew Point: 48.5 °F 32.6 °F 40.5 °F
Humidity: 86 % 52 % 65 %
Wind Speed: 14.8 mph 0.0 mph 6.5 mph
Wind Gust: 24.2 mph - -
Wind:- - SSE
Pressure: 30.36 in 30.05 in -
Precipitation: 0.00 in    
Historical Graphs
 
 
Tabular Data for November 6, 2016
Time Temperature Dew Point Pressure Wind Wind Speed Wind Gust Humidity Rainfall Rate (Hourly)
00:02 48.8 °F 44.8 °F 30.08 in WSW 0.2 mph 2.0 mph 86 % 0.00 in
00:08 49.0 °F 44.7 °F 30.08 in Calm   1.2 mph 85 % 0.00 in
00:18 49.2 °F 44.9 °F 30.08 in SW 1.0 mph 3.0 mph 85 % 0.00 in
00:23 49.4 °F 45.1 °F 30.07 in WSW 2.1 mph 4.0 mph 85 % 0.00 in
00:28 49.6 °F 45.3 °F 30.08 in WSW 1.4 mph 3.5 mph 85 % 0.00 in
00:33 49.8 °F 45.5 °F 30.08 in SW 1.9 mph 4.6 mph 85 % 0.00 in
00:38 50.0 °F 45.7 °F 30.07 in SW 2.7 mph 3.5 mph 85 % 0.00 in
00:43 50.2 °F 45.9 °F 30.07 in SSW 2.1 mph 3.5 mph 85 % 0.00 in
00:48 50.4 °F 45.7 °F 30.07 in SW 0.4 mph 3.5 mph 84 % 0.00 in
00:53 50.6 °F 45.9 °F 30.07 in SW 1.7 mph 3.5 mph 84 % 0.00 in
00:59 50.8 °F 46.1 °F 30.06 in SW 1.3 mph 5.0 mph 84 % 0.00 in
01:04 51.0 °F 46.0 °F 30.06 in SW 2.1 mph 5.8 mph 83 % 0.00 in
01:09 51.2 °F 46.2 °F 30.06 in SW 1.7 mph 3.5 mph 83 % 0.00 in
01:14 51.4 °F 46.4 °F 30.07 in West 1.7 mph 3.0 mph 83 % 0.00 in
01:19 51.6 °F 46.3 °F 30.07 in WSW 2.1 mph 3.5 mph 82 % 0.00 in
01:24 51.8 °F 46.5 °F 30.07 in West 1.2 mph 4.6 mph 82 % 0.00 in
01:29 52.0 °F 46.3 °F 30.07 in West 0.8 mph 3.5 mph 81 % 0.00 in
01:34 52.2 °F 46.5 °F 30.07 in WSW 2.1 mph 6.0 mph 81 % 0.00 in
01:39 52.4 °F 46.4 °F 30.06 in SW 1.2 mph 2.3 mph 80 % 0.00 in
01:44 52.4 °F 46.4 °F 30.06 in SW 1.5 mph 2.3 mph 80 % 0.00 in
01:49 52.5 °F 46.5 °F 30.07 in SW 1.0 mph 3.5 mph 80 % 0.00 in
01:54 52.5 °F 46.5 °F 30.07 in WSW 0.7 mph 2.3 mph 80 % 0.00 in
01:00 52.5 °F 46.5 °F 30.07 in Calm   2.3 mph 80 % 0.00 in
01:05 52.5 °F 46.5 °F 30.07 in SW 0.6 mph 3.5 mph 80 % 0.00 in
01:10 52.4 °F 46.7 °F 30.06 in SW 2.0 mph 3.5 mph 81 % 0.00 in
01:15 52.3 °F 47.0 °F 30.06 in SW 1.4 mph 3.5 mph 82 % 0.00 in
01:20 52.3 °F 47.0 °F 30.06 in WSW 1.9 mph 3.5 mph 82 % 0.00 in
01:25 52.3 °F 47.0 °F 30.06 in SW 0.1 mph 4.0 mph 82 % 0.00 in
01:30 52.3 °F 47.0 °F 30.06 in SW 0.4 mph 1.2 mph 82 % 0.00 in
01:35 52.3 °F 47.3 °F 30.06 in SW 3.3 mph 3.5 mph 83 % 0.00 in
01:40 52.3 °F 47.3 °F 30.06 in Calm   5.0 mph 83 % 0.00 in
01:45 52.3 °F 47.3 °F 30.06 in SW 1.0 mph 4.0 mph 83 % 0.00 in
01:50 52.3 °F 47.3 °F 30.06 in WSW 2.0 mph 6.0 mph 83 % 0.00 in
01:55 52.4 °F 47.4 °F 30.06 in WSW 3.0 mph 8.0 mph 83 % 0.00 in
02:00 52.6 °F 47.6 °F 30.06 in NNW 2.8 mph 8.1 mph 83 % 0.00 in
02:05 52.9 °F 47.2 °F 30.06 in West 5.2 mph 5.2 mph 81 % 0.00 in
02:10 53.2 °F 47.5 °F 30.06 in West 1.9 mph 4.6 mph 81 % 0.00 in
02:15 53.4 °F 47.4 °F 30.05 in WSW 2.4 mph 6.0 mph 80 % 0.00 in
02:20 53.7 °F 47.7 °F 30.05 in SW 2.1 mph 3.5 mph 80 % 0.00 in
02:25 53.9 °F 47.5 °F 30.05 in West 2.7 mph 7.0 mph 79 % 0.00 in
02:31 54.2 °F 47.5 °F 30.05 in SW 4.0 mph 8.1 mph 78 % 0.00 in
02:36 54.4 °F 47.7 °F 30.05 in WSW 3.9 mph 5.8 mph 78 % 0.00 in
02:41 54.6 °F 47.5 °F 30.05 in WSW 3.3 mph 6.9 mph 77 % 0.00 in
02:46 54.8 °F 47.7 °F 30.05 in ESE 3.0 mph 8.1 mph 77 % 0.00 in
02:51 54.9 °F 47.8 °F 30.05 in WSW 5.4 mph 8.1 mph 77 % 0.00 in
02:56 55.0 °F 47.9 °F 30.05 in WNW 3.0 mph 6.9 mph 77 % 0.00 in
03:01 55.1 °F 48.0 °F 30.05 in WSW 3.4 mph 8.1 mph 77 % 0.00 in
03:06 55.1 °F 47.7 °F 30.05 in WNW 1.0 mph 6.9 mph 76 % 0.00 in
03:11 55.1 °F 47.7 °F 30.05 in West 3.3 mph 4.0 mph 76 % 0.00 in
03:16 55.0 °F 47.9 °F 30.05 in NW 0.9 mph 4.6 mph 77 % 0.00 in
03:21 55.0 °F 47.9 °F 30.05 in NW 0.8 mph 4.6 mph 77 % 0.00 in
03:32 54.9 °F 48.2 °F 30.05 in WSW 3.9 mph 5.8 mph 78 % 0.00 in
03:37 54.8 °F 48.1 °F 30.05 in NW 5.2 mph 10.4 mph 78 % 0.00 in
03:42 54.8 °F 48.1 °F 30.05 in WNW 2.9 mph 5.0 mph 78 % 0.00 in
03:47 54.8 °F 48.1 °F 30.05 in WSW 3.3 mph 5.0 mph 78 % 0.00 in
03:52 54.7 °F 48.0 °F 30.05 in WSW 3.3 mph 8.1 mph 78 % 0.00 in
03:57 54.7 °F 48.0 °F 30.05 in WSW 1.8 mph 3.5 mph 78 % 0.00 in
04:02 54.6 °F 48.2 °F 30.05 in West 3.9 mph 5.8 mph 79 % 0.00 in
04:07 54.6 °F 48.2 °F 30.05 in WSW 4.1 mph 5.8 mph 79 % 0.00 in
04:12 54.6 °F 48.2 °F 30.05 in WNW 4.4 mph 9.2 mph 79 % 0.00 in
04:17 54.6 °F 48.2 °F 30.05 in NW 1.7 mph 3.5 mph 79 % 0.00 in
04:23 54.6 °F 48.2 °F 30.05 in SW 3.7 mph 8.0 mph 79 % 0.00 in
04:28 54.5 °F 48.1 °F 30.05 in WSW 4.0 mph 8.1 mph 79 % 0.00 in
04:33 54.6 °F 48.2 °F 30.05 in West 2.9 mph 9.0 mph 79 % 0.00 in
04:38 54.5 °F 48.1 °F 30.05 in West 2.8 mph 8.0 mph 79 % 0.00 in
04:43 54.5 °F 48.5 °F 30.05 in West 4.3 mph 8.1 mph 80 % 0.00 in
04:48 54.5 °F 48.5 °F 30.05 in WNW 3.3 mph 6.9 mph 80 % 0.00 in
04:53 54.4 °F 48.4 °F 30.05 in West 4.5 mph 8.1 mph 80 % 0.00 in
04:58 54.5 °F 48.5 °F 30.05 in WSW 5.5 mph 11.5 mph 80 % 0.00 in
05:03 54.5 °F 48.5 °F 30.05 in West 4.5 mph 11.5 mph 80 % 0.00 in
05:08 54.5 °F 48.5 °F 30.06 in WSW 4.1 mph 6.9 mph 80 % 0.00 in
05:14 54.5 °F 48.5 °F 30.06 in NW 3.1 mph 7.0 mph 80 % 0.00 in
05:19 54.4 °F 48.4 °F 30.06 in WNW 6.0 mph 10.4 mph 80 % 0.00 in
05:24 54.5 °F 48.5 °F 30.06 in NW 6.9 mph 11.5 mph 80 % 0.00 in
05:29 54.5 °F 48.5 °F 30.07 in NW 5.3 mph 12.7 mph 80 % 0.00 in
05:34 54.6 °F 48.2 °F 30.06 in WNW 5.0 mph 12.7 mph 79 % 0.00 in
05:39 54.6 °F 48.2 °F 30.07 in West 4.2 mph 6.0 mph 79 % 0.00 in
05:44 54.6 °F 48.2 °F 30.07 in NW 6.7 mph 11.5 mph 79 % 0.00 in
05:49 54.6 °F 48.2 °F 30.07 in West 4.1 mph 9.2 mph 79 % 0.00 in
05:54 54.6 °F 48.2 °F 30.07 in WNW 5.9 mph 10.4 mph 79 % 0.00 in
05:59 54.6 °F 48.2 °F 30.08 in WNW 5.2 mph 11.5 mph 79 % 0.00 in
06:05 54.6 °F 47.9 °F 30.08 in WNW 2.9 mph 9.0 mph 78 % 0.00 in
06:10 54.5 °F 48.1 °F 30.08 in NW 8.5 mph 12.0 mph 79 % 0.00 in
06:15 54.5 °F 48.1 °F 30.08 in NNW 5.7 mph 11.5 mph 79 % 0.00 in
06:20 54.4 °F 48.0 °F 30.09 in WNW 5.6 mph 9.2 mph 79 % 0.00 in
06:25 54.4 °F 47.7 °F 30.09 in NNW 4.8 mph 8.1 mph 78 % 0.00 in
06:30 54.4 °F 47.7 °F 30.10 in NW 6.0 mph 12.0 mph 78 % 0.00 in
06:35 54.3 °F 47.2 °F 30.10 in NNW 5.0 mph 12.0 mph 77 % 0.00 in
06:40 54.2 °F 47.5 °F 30.10 in NNW 3.3 mph 9.2 mph 78 % 0.00 in
06:45 54.1 °F 47.4 °F 30.10 in NW 2.6 mph 11.0 mph 78 % 0.00 in
06:51 53.9 °F 47.5 °F 30.11 in North 3.5 mph 11.5 mph 79 % 0.00 in
06:56 53.7 °F 47.3 °F 30.11 in North 4.4 mph 9.2 mph 79 % 0.00 in
07:01 53.6 °F 47.2 °F 30.11 in WNW 2.8 mph 12.7 mph 79 % 0.00 in
07:06 53.5 °F 46.8 °F 30.12 in NW 5.8 mph 10.4 mph 78 % 0.00 in
07:11 53.3 °F 46.6 °F 30.12 in NNW 2.5 mph 10.4 mph 78 % 0.00 in
07:16 53.2 °F 46.5 °F 30.12 in NW 4.7 mph 4.7 mph 78 % 0.00 in
07:21 53.1 °F 46.1 °F 30.12 in North 7.0 mph 12.7 mph 77 % 0.00 in
07:26 53.0 °F 45.6 °F 30.12 in WNW 5.5 mph 6.9 mph 76 % 0.00 in
07:31 53.0 °F 45.6 °F 30.12 in NNW 3.0 mph 10.4 mph 76 % 0.00 in
07:36 53.0 °F 46.0 °F 30.12 in NNW 6.4 mph 7.0 mph 77 % 0.00 in
07:41 53.0 °F 46.0 °F 30.12 in NNW 2.9 mph 10.4 mph 77 % 0.00 in
07:46 53.1 °F 45.7 °F 30.12 in NE 4.8 mph 10.4 mph 76 % 0.00 in
07:52 53.1 °F 45.7 °F 30.12 in WNW 4.0 mph 10.4 mph 76 % 0.00 in
07:57 53.1 °F 45.4 °F 30.13 in North 4.8 mph 8.1 mph 75 % 0.00 in
08:02 53.1 °F 45.7 °F 30.13 in WSW 2.8 mph 9.2 mph 76 % 0.00 in
08:07 53.2 °F 45.8 °F 30.14 in NNW 2.8 mph 4.6 mph 76 % 0.00 in
08:12 53.2 °F 45.8 °F 30.14 in West 4.4 mph 6.9 mph 76 % 0.00 in
08:17 53.3 °F 45.6 °F 30.14 in NNE 4.9 mph 11.5 mph 75 % 0.00 in
08:22 53.3 °F 45.2 °F 30.14 in North 5.5 mph 11.5 mph 74 % 0.00 in
08:27 53.4 °F 44.6 °F 30.14 in NE 5.5 mph 16.1 mph 72 % 0.00 in
08:32 53.6 °F 45.2 °F 30.15 in NNE 6.5 mph 12.0 mph 73 % 0.00 in
08:37 54.1 °F 44.5 °F 30.14 in NNE 6.4 mph 13.0 mph 70 % 0.00 in
08:42 54.6 °F 44.6 °F 30.14 in NNE 3.4 mph 10.4 mph 69 % 0.00 in
08:47 55.1 °F 44.3 °F 30.14 in NNW 8.2 mph 12.7 mph 67 % 0.00 in
08:53 55.4 °F 44.2 °F 30.15 in NNE 5.6 mph 10.4 mph 66 % 0.00 in
08:58 55.6 °F 44.4 °F 30.14 in North 2.6 mph 6.0 mph 66 % 0.00 in
09:03 55.8 °F 43.8 °F 30.15 in NNW 9.9 mph 19.6 mph 64 % 0.00 in
09:08 55.9 °F 43.9 °F 30.15 in NNE 7.6 mph 12.0 mph 64 % 0.00 in
09:13 56.0 °F 43.6 °F 30.15 in NNE 7.1 mph 16.1 mph 63 % 0.00 in
09:18 56.2 °F 44.2 °F 30.15 in NW 4.1 mph 11.0 mph 64 % 0.00 in
09:23 56.6 °F 43.7 °F 30.15 in NNW 5.9 mph 13.8 mph 62 % 0.00 in
09:28 56.9 °F 44.0 °F 30.15 in NNE 4.2 mph 9.2 mph 62 % 0.00 in
09:33 56.9 °F 44.0 °F 30.15 in NNW 5.1 mph 11.5 mph 62 % 0.00 in
09:39 57.1 °F 44.2 °F 30.15 in North 8.4 mph 12.7 mph 62 % 0.00 in
09:44 57.1 °F 43.3 °F 30.16 in NNE 8.3 mph 13.8 mph 60 % 0.00 in
09:49 57.5 °F 43.3 °F 30.16 in NNW 3.7 mph 8.1 mph 59 % 0.00 in
09:54 57.7 °F 42.6 °F 30.16 in NW 5.1 mph 11.0 mph 57 % 0.00 in
09:59 57.4 °F 41.8 °F 30.16 in NNE 6.2 mph 15.0 mph 56 % 0.00 in
10:04 57.5 °F 43.3 °F 30.17 in NW 4.4 mph 9.2 mph 59 % 0.00 in
10:09 57.9 °F 42.3 °F 30.17 in NNW 7.3 mph 11.5 mph 56 % 0.00 in
10:14 57.9 °F 41.8 °F 30.17 in NNE 7.3 mph 11.5 mph 55 % 0.00 in
10:19 57.5 °F 42.4 °F 30.17 in NNE 5.9 mph 8.1 mph 57 % 0.00 in
10:24 56.9 °F 41.4 °F 30.17 in North 10.2 mph 15.0 mph 56 % 0.00 in
10:30 57.1 °F 42.0 °F 30.17 in NNE 7.0 mph 11.5 mph 57 % 0.00 in
10:35 57.1 °F 42.0 °F 30.18 in North 4.3 mph 11.0 mph 57 % 0.00 in
10:40 56.9 °F 41.4 °F 30.17 in NNE 12.3 mph 16.1 mph 56 % 0.00 in
10:45 56.4 °F 40.9 °F 30.18 in NNW 6.4 mph 15.0 mph 56 % 0.00 in
10:50 56.2 °F 41.2 °F 30.18 in North 4.7 mph 10.4 mph 57 % 0.00 in
10:55 56.0 °F 41.4 °F 30.17 in NNW 6.5 mph 11.5 mph 58 % 0.00 in
11:00 55.8 °F 41.2 °F 30.17 in NNE 7.0 mph 13.8 mph 58 % 0.00 in
11:05 55.8 °F 40.4 °F 30.18 in North 9.0 mph 20.0 mph 56 % 0.00 in
11:10 56.1 °F 39.7 °F 30.17 in North 9.0 mph 20.0 mph 54 % 0.00 in
11:15 56.3 °F 40.8 °F 30.17 in North 8.0 mph 14.0 mph 56 % 0.00 in
11:20 56.5 °F 40.5 °F 30.17 in North 6.0 mph 14.0 mph 55 % 0.00 in
11:25 56.0 °F 39.6 °F 30.17 in NNE 9.0 mph 20.0 mph 54 % 0.00 in
11:30 55.6 °F 40.1 °F 30.17 in NNE 10.0 mph 17.0 mph 56 % 0.00 in
11:35 55.5 °F 39.1 °F 30.17 in NNE 9.0 mph 16.0 mph 54 % 0.00 in
11:40 55.4 °F 39.4 °F 30.17 in North 9.0 mph 15.0 mph 55 % 0.00 in
11:45 55.2 °F 39.7 °F 30.17 in North 9.0 mph 17.0 mph 56 % 0.00 in
11:50 55.1 °F 40.6 °F 30.17 in NW 8.5 mph 17.3 mph 58 % 0.00 in
11:55 55.0 °F 39.6 °F 30.17 in NNE 10.0 mph 21.0 mph 56 % 0.00 in
12:00 54.8 °F 39.4 °F 30.17 in NNE 9.0 mph 13.8 mph 56 % 0.00 in
12:05 54.7 °F 38.8 °F 30.18 in NNW 8.2 mph 12.7 mph 55 % 0.00 in
12:10 54.9 °F 39.5 °F 30.17 in NE 7.1 mph 10.4 mph 56 % 0.00 in
12:15 55.2 °F 40.7 °F 30.17 in NNE 7.3 mph 17.3 mph 58 % 0.00 in
12:21 55.3 °F 40.8 °F 30.17 in NNW 11.9 mph 16.1 mph 58 % 0.00 in
12:26 55.0 °F 40.0 °F 30.18 in NNE 9.3 mph 12.0 mph 57 % 0.00 in
12:31 54.5 °F 39.6 °F 30.17 in NNE 9.1 mph 16.1 mph 57 % 0.00 in
12:36 54.4 °F 39.9 °F 30.18 in North 11.9 mph 17.3 mph 58 % 0.00 in
12:41 54.4 °F 39.5 °F 30.18 in North 11.4 mph 19.6 mph 57 % 0.00 in
12:46 54.5 °F 39.1 °F 30.18 in North 9.3 mph 16.1 mph 56 % 0.00 in
12:51 54.6 °F 38.3 °F 30.18 in NNE 8.5 mph 11.5 mph 54 % 0.00 in
12:56 55.0 °F 38.2 °F 30.18 in NE 8.9 mph 15.0 mph 53 % 0.00 in
13:01 55.2 °F 38.4 °F 30.18 in NNE 8.5 mph 19.6 mph 53 % 0.00 in
13:06 55.4 °F 38.1 °F 30.18 in NNW 11.4 mph 12.7 mph 52 % 0.00 in
13:11 55.7 °F 39.3 °F 30.18 in North 8.3 mph 18.4 mph 54 % 0.00 in
13:16 56.0 °F 39.1 °F 30.18 in North 9.3 mph 15.0 mph 53 % 0.00 in
13:22 56.0 °F 39.1 °F 30.18 in North 9.0 mph 12.7 mph 53 % 0.00 in
13:27 55.9 °F 39.0 °F 30.18 in North 11.8 mph 24.2 mph 53 % 0.00 in
13:32 55.8 °F 38.4 °F 30.19 in NNE 9.8 mph 17.3 mph 52 % 0.00 in
13:37 55.7 °F 38.8 °F 30.19 in NNE 9.1 mph 15.0 mph 53 % 0.00 in
13:42 55.6 °F 39.2 °F 30.19 in NNE 9.1 mph 14.0 mph 54 % 0.00 in
13:47 55.3 °F 38.4 °F 30.19 in North 9.0 mph 18.4 mph 53 % 0.00 in
13:52 55.0 °F 38.2 °F 30.20 in NE 9.9 mph 15.0 mph 53 % 0.00 in
13:57 54.7 °F 37.4 °F 30.20 in NE 14.8 mph 19.6 mph 52 % 0.00 in
14:02 54.3 °F 37.0 °F 30.20 in North 12.3 mph 16.1 mph 52 % 0.00 in
14:07 53.9 °F 37.1 °F 30.21 in North 9.9 mph 18.4 mph 53 % 0.00 in
14:12 53.5 °F 37.7 °F 30.21 in North 9.7 mph 17.3 mph 55 % 0.00 in
14:17 53.2 °F 37.0 °F 30.21 in North 9.6 mph 16.1 mph 54 % 0.00 in
14:22 52.9 °F 36.2 °F 30.21 in NNE 10.9 mph 18.0 mph 53 % 0.00 in
14:28 52.8 °F 37.5 °F 30.21 in NE 11.1 mph 17.3 mph 56 % 0.00 in
14:33 52.5 °F 36.3 °F 30.21 in North 13.2 mph 19.6 mph 54 % 0.00 in
14:38 52.3 °F 36.6 °F 30.22 in North 13.4 mph 20.7 mph 55 % 0.00 in
14:43 52.3 °F 36.1 °F 30.22 in North 11.9 mph 18.4 mph 54 % 0.00 in
14:48 52.1 °F 35.9 °F 30.22 in NNW 12.7 mph 19.6 mph 54 % 0.00 in
14:53 51.9 °F 35.3 °F 30.23 in NNW 9.5 mph 18.4 mph 53 % 0.00 in
14:58 51.8 °F 35.7 °F 30.22 in NNE 6.6 mph 15.0 mph 54 % 0.00 in
15:03 52.0 °F 35.9 °F 30.23 in NNE 8.1 mph 11.5 mph 54 % 0.00 in
15:08 52.1 °F 35.5 °F 30.23 in NNE 9.7 mph 16.1 mph 53 % 0.00 in
15:13 52.1 °F 35.5 °F 30.23 in NE 8.2 mph 12.7 mph 53 % 0.00 in
15:19 52.1 °F 35.5 °F 30.23 in NE 9.6 mph 18.4 mph 53 % 0.00 in
15:24 52.2 °F 35.1 °F 30.23 in NE 10.0 mph 15.0 mph 52 % 0.00 in
15:29 52.1 °F 35.0 °F 30.23 in NW 11.0 mph 18.4 mph 52 % 0.00 in
15:34 52.0 °F 34.9 °F 30.24 in North 6.4 mph 12.7 mph 52 % 0.00 in
15:39 51.8 °F 34.7 °F 30.23 in NNE 6.1 mph 13.8 mph 52 % 0.00 in
15:44 51.7 °F 35.1 °F 30.24 in North 9.6 mph 18.4 mph 53 % 0.00 in
15:49 51.6 °F 35.0 °F 30.23 in NNE 8.7 mph 16.1 mph 53 % 0.00 in
15:54 51.5 °F 34.9 °F 30.24 in North 7.7 mph 10.4 mph 53 % 0.00 in
15:59 51.4 °F 34.8 °F 30.24 in NNE 7.3 mph 13.8 mph 53 % 0.00 in
16:05 51.3 °F 34.7 °F 30.24 in North 9.7 mph 19.6 mph 53 % 0.00 in
16:10 51.2 °F 34.2 °F 30.24 in NE 7.9 mph 13.8 mph 52 % 0.00 in
16:15 51.0 °F 34.5 °F 30.24 in NNE 8.0 mph 12.7 mph 53 % 0.00 in
16:25 50.7 °F 33.7 °F 30.25 in NNE 8.5 mph 17.3 mph 52 % 0.00 in
16:30 50.6 °F 34.1 °F 30.25 in NNE 8.1 mph 14.0 mph 53 % 0.00 in
16:35 50.4 °F 33.9 °F 30.25 in NNW 6.7 mph 13.8 mph 53 % 0.00 in
16:40 50.3 °F 33.8 °F 30.25 in NNW 6.9 mph 18.4 mph 53 % 0.00 in
16:45 50.2 °F 33.7 °F 30.25 in NNE 9.1 mph 21.9 mph 53 % 0.00 in
16:50 50.2 °F 33.7 °F 30.26 in NNE 8.0 mph 17.0 mph 53 % 0.00 in
16:55 50.1 °F 34.1 °F 30.26 in North 8.0 mph 13.0 mph 54 % 0.00 in
17:00 50.1 °F 33.6 °F 30.26 in North 10.4 mph 16.1 mph 53 % 0.00 in
17:05 50.1 °F 35.0 °F 30.26 in NNE 6.2 mph 11.0 mph 56 % 0.00 in
17:08 50.1 °F 34.5 °F 30.27 in NNE 6.3 mph 13.0 mph 55 % 0.00 in
17:11 50.0 °F 33.5 °F 30.27 in North 7.8 mph 15.0 mph 53 % 0.00 in
17:13 50.0 °F 34.0 °F 30.27 in North 4.3 mph 16.1 mph 54 % 0.00 in
17:19 50.0 °F 34.9 °F 30.28 in NNE 6.0 mph 11.5 mph 56 % 0.00 in
17:23 49.9 °F 34.4 °F 30.28 in North 9.8 mph 13.8 mph 55 % 0.00 in
17:29 49.8 °F 34.3 °F 30.28 in North 10.2 mph 18.4 mph 55 % 0.00 in
17:31 49.8 °F 34.3 °F 30.28 in NE 8.0 mph 18.4 mph 55 % 0.00 in
17:32 49.8 °F 34.7 °F 30.28 in ENE 8.8 mph 11.5 mph 56 % 0.00 in
17:33 49.8 °F 34.7 °F 30.28 in NE 9.0 mph 12.0 mph 56 % 0.00 in
17:38 49.7 °F 33.2 °F 30.28 in North 7.4 mph 15.0 mph 53 % 0.00 in
17:41 49.6 °F 34.5 °F 30.29 in NE 8.1 mph 14.0 mph 56 % 0.00 in
17:45 49.6 °F 34.1 °F 30.29 in NNE 5.9 mph 11.5 mph 55 % 0.00 in
17:50 49.5 °F 34.0 °F 30.29 in North 9.7 mph 15.0 mph 55 % 0.00 in
18:00 49.4 °F 34.3 °F 30.30 in North 11.1 mph 16.1 mph 56 % 0.00 in
18:03 49.4 °F 33.9 °F 30.30 in NNE 11.0 mph 19.6 mph 55 % 0.00 in
18:05 49.4 °F 33.9 °F 30.30 in North 7.4 mph 19.6 mph 55 % 0.00 in
18:11 49.3 °F 34.3 °F 30.30 in NE 5.9 mph 15.0 mph 56 % 0.00 in
18:12 49.3 °F 34.3 °F 30.30 in North 7.4 mph 10.4 mph 56 % 0.00 in
18:14 49.3 °F 34.3 °F 30.30 in North 6.5 mph 11.0 mph 56 % 0.00 in
18:15 49.3 °F 33.8 °F 30.30 in North 7.3 mph 11.5 mph 55 % 0.00 in
18:24 49.1 °F 33.6 °F 30.30 in North 7.0 mph 11.0 mph 55 % 0.00 in
18:29 49.1 °F 34.1 °F 30.30 in North 8.9 mph 13.0 mph 56 % 0.00 in
18:32 49.1 °F 34.1 °F 30.30 in NNE 6.8 mph 11.0 mph 56 % 0.00 in
18:37 49.0 °F 34.4 °F 30.31 in NE 11.0 mph 15.0 mph 57 % 0.00 in
18:43 49.0 °F 34.4 °F 30.31 in NNE 5.1 mph 11.5 mph 57 % 0.00 in
18:48 48.9 °F 34.3 °F 30.31 in NNE 6.7 mph 11.0 mph 57 % 0.00 in
18:53 48.8 °F 33.8 °F 30.32 in NNE 7.4 mph 10.4 mph 56 % 0.00 in
18:58 48.7 °F 34.6 °F 30.32 in North 8.3 mph 11.5 mph 58 % 0.00 in
19:03 48.6 °F 34.0 °F 30.31 in NE 11.7 mph 16.1 mph 57 % 0.00 in
19:08 48.5 °F 34.4 °F 30.32 in NE 8.0 mph 12.7 mph 58 % 0.00 in
19:13 48.5 °F 34.4 °F 30.31 in NNE 9.7 mph 13.8 mph 58 % 0.00 in
19:18 48.4 °F 34.3 °F 30.31 in North 7.9 mph 12.7 mph 58 % 0.00 in
19:23 48.3 °F 33.8 °F 30.31 in NNE 8.9 mph 16.1 mph 57 % 0.00 in
19:28 48.3 °F 34.2 °F 30.32 in NNE 8.3 mph 11.5 mph 58 % 0.00 in
19:33 48.2 °F 34.1 °F 30.32 in North 6.9 mph 11.5 mph 58 % 0.00 in
19:39 48.2 °F 34.5 °F 30.32 in NNE 9.3 mph 13.0 mph 59 % 0.00 in
19:44 48.3 °F 34.6 °F 30.32 in NNE 12.8 mph 21.9 mph 59 % 0.00 in
19:49 48.3 °F 34.6 °F 30.32 in NNE 9.1 mph 15.0 mph 59 % 0.00 in
19:54 48.3 °F 34.2 °F 30.32 in North 6.9 mph 11.0 mph 58 % 0.00 in
19:59 48.2 °F 34.1 °F 30.32 in North 8.4 mph 13.8 mph 58 % 0.00 in
20:04 48.2 °F 33.7 °F 30.32 in ENE 11.0 mph 15.0 mph 57 % 0.00 in
20:09 48.1 °F 34.0 °F 30.32 in NNE 12.3 mph 16.1 mph 58 % 0.00 in
20:14 48.0 °F 33.9 °F 30.32 in North 9.4 mph 19.6 mph 58 % 0.00 in
20:19 47.9 °F 34.3 °F 30.32 in NE 6.3 mph 13.8 mph 59 % 0.00 in
20:24 47.9 °F 33.8 °F 30.33 in NNE 6.4 mph 12.7 mph 58 % 0.00 in
20:30 47.9 °F 33.8 °F 30.33 in North 11.0 mph 16.1 mph 58 % 0.00 in
20:35 47.8 °F 34.2 °F 30.33 in North 11.2 mph 16.1 mph 59 % 0.00 in
20:40 47.7 °F 34.1 °F 30.33 in NNE 7.0 mph 11.5 mph 59 % 0.00 in
20:45 47.7 °F 33.6 °F 30.33 in NNE 10.5 mph 18.4 mph 58 % 0.00 in
20:50 47.7 °F 33.2 °F 30.34 in North 9.1 mph 15.0 mph 57 % 0.00 in
20:55 47.7 °F 33.2 °F 30.34 in North 10.8 mph 16.1 mph 57 % 0.00 in
21:00 47.7 °F 33.2 °F 30.34 in North 10.6 mph 14.0 mph 57 % 0.00 in
21:05 47.7 °F 33.2 °F 30.35 in NNE 9.0 mph 18.0 mph 57 % 0.00 in
21:10 47.6 °F 34.0 °F 30.35 in NNE 7.0 mph 15.0 mph 59 % 0.00 in
21:15 47.5 °F 33.9 °F 30.35 in NNE 9.6 mph 11.5 mph 59 % 0.00 in
21:20 47.5 °F 33.9 °F 30.35 in NNE 10.0 mph 22.0 mph 59 % 0.00 in
21:25 47.5 °F 34.3 °F 30.35 in NNE 9.0 mph 18.0 mph 60 % 0.00 in
21:30 47.4 °F 33.4 °F 30.35 in North 11.9 mph 18.4 mph 58 % 0.00 in
21:35 47.3 °F 33.7 °F 30.35 in NNE 10.0 mph 17.0 mph 59 % 0.00 in
21:40 47.2 °F 33.2 °F 30.35 in NNE 12.0 mph 20.0 mph 58 % 0.00 in
21:45 47.1 °F 33.5 °F 30.35 in NNE 7.1 mph 13.8 mph 59 % 0.00 in
21:50 47.0 °F 33.0 °F 30.35 in NNE 9.0 mph 17.0 mph 58 % 0.00 in
21:55 47.0 °F 33.4 °F 30.35 in NNE 10.0 mph 17.0 mph 59 % 0.00 in
22:00 46.9 °F 34.1 °F 30.36 in NNE 7.4 mph 16.0 mph 61 % 0.00 in
22:05 46.8 °F 33.2 °F 30.36 in NNE 8.0 mph 18.0 mph 59 % 0.00 in
22:10 46.7 °F 33.5 °F 30.36 in NNE 9.0 mph 16.0 mph 60 % 0.00 in
22:15 46.7 °F 33.1 °F 30.36 in NNE 7.9 mph 11.5 mph 59 % 0.00 in
22:20 46.6 °F 33.4 °F 30.35 in NNE 9.0 mph 14.0 mph 60 % 0.00 in
22:25 46.5 °F 32.9 °F 30.35 in NNE 7.0 mph 16.0 mph 59 % 0.00 in
22:30 46.4 °F 33.7 °F 30.35 in NNE 9.0 mph 12.7 mph 61 % 0.00 in
22:35 46.3 °F 32.7 °F 30.35 in NNE 7.0 mph 18.0 mph 59 % 0.00 in
22:40 46.2 °F 32.7 °F 30.35 in North 6.0 mph 15.0 mph 59 % 0.00 in
22:45 46.1 °F 32.6 °F 30.36 in NNE 9.0 mph 15.0 mph 59 % 0.00 in
22:50 46.1 °F 32.6 °F 30.36 in NNE 8.0 mph 16.0 mph 59 % 0.00 in
22:55 46.1 °F 33.0 °F 30.35 in NNE 7.0 mph 15.0 mph 60 % 0.00 in
23:00 46.0 °F 32.9 °F 30.36 in NNW 4.7 mph 12.7 mph 60 % 0.00 in
23:05 45.9 °F 33.6 °F 30.36 in NNE 8.0 mph 13.0 mph 62 % 0.00 in
23:10 45.8 °F 33.1 °F 30.36 in NNE 9.0 mph 15.0 mph 61 % 0.00 in
23:15 45.7 °F 33.0 °F 30.35 in NNE 7.0 mph 14.0 mph 61 % 0.00 in
23:20 45.7 °F 33.4 °F 30.36 in North 6.0 mph 14.0 mph 62 % 0.00 in
23:25 45.6 °F 33.7 °F 30.36 in North 7.0 mph 13.0 mph 63 % 0.00 in
23:30 45.6 °F 33.3 °F 30.36 in NNE 9.5 mph 12.7 mph 62 % 0.00 in
23:35 45.6 °F 33.7 °F 30.36 in NNE 7.0 mph 16.0 mph 63 % 0.00 in
23:40 45.6 °F 33.3 °F 30.36 in NNE 9.0 mph 18.0 mph 62 % 0.00 in
23:45 45.6 °F 34.1 °F 30.36 in NNE 8.0 mph 13.0 mph 64 % 0.00 in
23:50 45.6 °F 33.7 °F 30.36 in NNE 8.0 mph 17.0 mph 63 % 0.00 in
23:55 45.5 °F 33.6 °F 30.36 in NNE 9.0 mph 14.0 mph 63 % 0.00 in
Crab Meadow Weather
Compliments of Weather Underground - 3.25 mb

Script developed by  Jim McMurry - jmcmurry@mwt.net Adapted for the template by  Wim van der Kuil - Leuven-Template.eu

Recycling: To produce each week's Sunday newspapers, 500,000 trees must be cut down.